Wrangell, AK

7:14 AM AKST on February 25, 2018 (GMT -0900)
Wrangell

Weather History for PAWG - January, 2013

Change the Weather History Date:

Sunday, January 6, 2013

  Actual Average Record
Temperature  
Mean Temperature 38 °F -  
Max Temperature 41 °F 31 °F 62 °F (1958)
Min Temperature 35 °F 22 °F 1 °F (1966)
Degree Days  
Heating Degree Days 27    
Moisture  
Dew Point 32 °F    
Average Humidity 81    
Maximum Humidity 87    
Minimum Humidity 70    
Precipitation  
Precipitation 0.00 in - - ()
Sea Level Pressure  
Sea Level Pressure 29.71 in    
Wind  
Wind Speed 6 mph (East)    
Max Wind Speed 12 mph    
Max Gust Speed 17 mph    
Visibility 10 miles    
Events      
Averages and records for this station are not official NWS values.
T = Trace of Precipitation, MM = Missing Value Source: NWS Daily Summary

Daily Weather History Graph

Daily Weather History Graph

Search for Another Location

Airport or City:

Trip Planner

Search our weather history database for the weather conditions in past years. The results will help you decide how hot, cold, wet, or windy it might be!

Date:

Astronomy

Jan. 06, 2013 Rise Set
Actual Time 8:21 AM AKST 3:30 PM AKST
Civil Twilight 7:34 AM AKST 4:17 PM AKST
Nautical Twilight 6:45 AM AKST 5:06 PM AKST
Astronomical Twilight 5:59 AM AKST 5:52 PM AKST
Moon 2:17 AM AKST (1/6) 11:24 AM AKST (1/6)
Length of Visible Light 8h 42m
Length of Day
7h 08m
Waning Crescent, 31% of the Moon is Illuminated
Jan 6
Waning Crescent
Jan 11
New
Jan 18
First Quarter
Jan 26
Full
Feb 3
Last Quarter

Hourly Weather History & Observations

Time (AKST) Temp. Windchill Dew Point Humidity Pressure Visibility Wind Dir Wind Speed Gust Speed Precip Events Conditions
12:16 AM 37.4 °F 32.8 °F 32.0 °F 81% 29.73 in 10.0 mi East 5.8 mph - N/A   Overcast
12:36 AM 37.4 °F 31.4 °F 33.8 °F 87% 29.73 in 10.0 mi East 8.1 mph - N/A   Overcast
12:56 AM 37.4 °F 34.9 °F 32.0 °F 81% 29.74 in 10.0 mi SW 3.5 mph - N/A   Overcast
1:16 AM 37.4 °F 31.4 °F 32.0 °F 81% 29.74 in 10.0 mi ESE 8.1 mph - N/A   Overcast
1:36 AM 37.4 °F 32.8 °F 33.8 °F 87% 29.75 in 10.0 mi ESE 5.8 mph - N/A   Overcast
1:56 AM 35.6 °F 32.8 °F 30.2 °F 81% 29.76 in 10.0 mi WNW 3.5 mph - N/A   Overcast
2:16 AM 37.4 °F 33.8 °F 33.8 °F 87% 29.76 in 10.0 mi ESE 4.6 mph - N/A   Overcast
2:36 AM 35.6 °F 32.8 °F 30.2 °F 81% 29.76 in 10.0 mi East 3.5 mph - N/A   Overcast
3:16 AM 35.6 °F - 30.2 °F 81% 29.77 in 10.0 mi Calm Calm - N/A   Overcast
3:36 AM 35.6 °F 32.8 °F 30.2 °F 81% 29.77 in 10.0 mi NW 3.5 mph - N/A   Overcast
3:56 AM 35.6 °F - 30.2 °F 81% 29.77 in 10.0 mi Calm Calm - N/A   Overcast
4:16 AM 35.6 °F 32.8 °F 30.2 °F 81% 29.76 in 10.0 mi East 3.5 mph - N/A   Overcast
4:36 AM 37.4 °F 34.9 °F 32.0 °F 81% 29.76 in 10.0 mi ENE 3.5 mph - N/A   Overcast
4:56 AM 35.6 °F - 30.2 °F 81% 29.77 in 10.0 mi Calm Calm - N/A   Overcast
5:16 AM 37.4 °F 33.8 °F 32.0 °F 81% 29.76 in 10.0 mi ESE 4.6 mph - N/A   Overcast
5:36 AM 35.6 °F - 30.2 °F 81% 29.76 in 10.0 mi Calm Calm - N/A   Overcast
5:56 AM 35.6 °F - 30.2 °F 81% 29.77 in 10.0 mi Calm Calm - N/A   Overcast
6:16 AM 37.4 °F 32.8 °F 32.0 °F 81% 29.77 in 10.0 mi East 5.8 mph - N/A   Overcast
6:36 AM 37.4 °F 32.1 °F 33.8 °F 87% 29.77 in 10.0 mi East 6.9 mph - N/A   Overcast
6:56 AM 35.6 °F 32.8 °F 30.2 °F 81% 29.77 in 10.0 mi ESE 3.5 mph - N/A   Overcast
7:16 AM 37.4 °F 33.8 °F 33.8 °F 87% 29.76 in 10.0 mi SE 4.6 mph - N/A   Overcast
7:36 AM 37.4 °F 33.8 °F 33.8 °F 87% 29.76 in 10.0 mi ESE 4.6 mph - N/A   Mostly Cloudy
7:56 AM 37.4 °F - 32.0 °F 81% 29.77 in 10.0 mi Calm Calm - N/A   Mostly Cloudy
8:16 AM 37.4 °F 32.8 °F 32.0 °F 81% 29.77 in 10.0 mi East 5.8 mph - N/A   Mostly Cloudy
8:36 AM 37.4 °F 32.8 °F 32.0 °F 81% 29.77 in 10.0 mi East 5.8 mph - N/A   Mostly Cloudy
8:56 AM 35.6 °F 32.8 °F 32.0 °F 87% 29.77 in 10.0 mi ESE 3.5 mph - N/A   Scattered Clouds
9:16 AM 37.4 °F 33.8 °F 32.0 °F 81% 29.78 in 10.0 mi East 4.6 mph - N/A   Scattered Clouds
9:36 AM 37.4 °F 33.8 °F 32.0 °F 81% 29.79 in 10.0 mi East 4.6 mph - N/A   Scattered Clouds
9:56 AM 37.4 °F 31.4 °F 32.0 °F 81% 29.80 in 10.0 mi East 8.1 mph - N/A   Scattered Clouds
10:16 AM 35.6 °F 29.2 °F 32.0 °F 87% 29.80 in 10.0 mi East 8.1 mph - N/A   Scattered Clouds
10:36 AM 35.6 °F 28.0 °F 32.0 °F 87% 29.80 in 10.0 mi ESE 10.4 mph - N/A   Scattered Clouds
10:56 AM 35.6 °F 27.5 °F 32.0 °F 87% 29.79 in 10.0 mi East 11.5 mph - N/A   Scattered Clouds
11:16 AM 35.6 °F 29.9 °F 30.2 °F 81% 29.80 in 10.0 mi ESE 6.9 mph - N/A   Scattered Clouds
11:36 AM 37.4 °F 32.1 °F 30.2 °F 75% 29.79 in 10.0 mi ESE 6.9 mph - N/A   Scattered Clouds
11:56 AM 37.4 °F 30.3 °F 32.0 °F 81% 29.78 in 10.0 mi ESE 10.4 mph - N/A   Mostly Cloudy
12:16 PM 37.4 °F 30.3 °F 32.0 °F 81% 29.78 in 10.0 mi ESE 10.4 mph - N/A   Mostly Cloudy
12:36 PM 37.4 °F 30.8 °F 33.8 °F 87% 29.78 in 10.0 mi ESE 9.2 mph - N/A   Mostly Cloudy
12:56 PM 37.4 °F 30.3 °F 33.8 °F 87% 29.77 in 10.0 mi East 10.4 mph - N/A   Mostly Cloudy
1:16 PM 37.4 °F 31.4 °F 32.0 °F 81% 29.77 in 10.0 mi SE 8.1 mph - N/A   Mostly Cloudy
1:36 PM 37.4 °F 33.8 °F 33.8 °F 87% 29.78 in 10.0 mi ESE 4.6 mph - N/A   Mostly Cloudy
1:56 PM 37.4 °F 32.8 °F 32.0 °F 81% 29.77 in 10.0 mi East 5.8 mph - N/A   Mostly Cloudy
2:16 PM 37.4 °F 32.1 °F 32.0 °F 81% 29.77 in 10.0 mi East 6.9 mph - N/A   Mostly Cloudy
2:36 PM 37.4 °F 34.9 °F 32.0 °F 81% 29.77 in 10.0 mi SE 3.5 mph - N/A   Mostly Cloudy
2:56 PM 37.4 °F 30.8 °F 33.8 °F 87% 29.76 in 10.0 mi ESE 9.2 mph - N/A   Mostly Cloudy
3:16 PM 39.2 °F 32.5 °F 33.8 °F 81% 29.75 in 10.0 mi East 10.4 mph - N/A   Overcast
3:36 PM 37.4 °F 30.3 °F 33.8 °F 87% 29.73 in 10.0 mi East 10.4 mph - N/A   Mostly Cloudy
3:56 PM 37.4 °F 32.1 °F 32.0 °F 81% 29.73 in 10.0 mi East 6.9 mph - N/A   Mostly Cloudy
4:16 PM 37.4 °F 33.8 °F 32.0 °F 81% 29.72 in 10.0 mi East 4.6 mph - N/A   Mostly Cloudy
4:36 PM 39.2 °F 35.9 °F 30.2 °F 70% 29.71 in 10.0 mi ENE 4.6 mph - N/A   Mostly Cloudy
4:56 PM 35.6 °F 29.9 °F 28.4 °F 75% 29.70 in 10.0 mi NW 6.9 mph - N/A   Overcast
5:16 PM 35.6 °F 32.8 °F 28.4 °F 75% 29.69 in 10.0 mi WNW 3.5 mph - N/A   Overcast
5:36 PM 35.6 °F - 28.4 °F 75% 29.69 in 10.0 mi Calm Calm - N/A   Overcast
5:56 PM 37.4 °F - 30.2 °F 75% 29.68 in 10.0 mi Calm Calm - N/A   Mostly Cloudy
6:16 PM 37.4 °F 32.1 °F 30.2 °F 75% 29.66 in 10.0 mi East 6.9 mph - N/A   Mostly Cloudy
6:36 PM 39.2 °F 32.0 °F 33.8 °F 81% 29.65 in 10.0 mi ENE 11.5 mph - N/A   Mostly Cloudy
6:56 PM 39.2 °F 33.0 °F 32.0 °F 75% 29.64 in 10.0 mi ENE 9.2 mph - N/A   Mostly Cloudy
7:16 PM 39.2 °F 33.0 °F 32.0 °F 75% 29.63 in 10.0 mi East 9.2 mph - N/A   Mostly Cloudy
7:36 PM 39.2 °F 35.0 °F 32.0 °F 75% 29.63 in 10.0 mi ENE 5.8 mph - N/A   Mostly Cloudy
7:56 PM 39.2 °F 34.2 °F 33.8 °F 81% 29.61 in 10.0 mi East 6.9 mph - N/A   Overcast
8:16 PM 39.2 °F 32.5 °F 32.0 °F 75% 29.59 in 10.0 mi ESE 10.4 mph - N/A   Overcast
8:36 PM 41.0 °F 35.2 °F 32.0 °F 70% 29.58 in 10.0 mi East 9.2 mph 17.3 mph N/A   Overcast
8:56 PM 39.2 °F 33.0 °F 33.8 °F 81% 29.57 in 10.0 mi East 9.2 mph - N/A   Overcast
9:16 PM 41.0 °F 35.2 °F 32.0 °F 70% 29.56 in 10.0 mi ENE 9.2 mph - N/A   Overcast
9:36 PM 39.2 °F 35.0 °F 33.8 °F 81% 29.54 in 10.0 mi East 5.8 mph - N/A   Overcast
9:56 PM 39.2 °F 34.2 °F 33.8 °F 81% 29.53 in 10.0 mi East 6.9 mph - N/A   Overcast
10:16 PM 39.2 °F 33.0 °F 30.2 °F 70% 29.52 in 10.0 mi SE 9.2 mph - N/A   Overcast
10:36 PM 39.2 °F 33.6 °F 33.8 °F 81% 29.51 in 10.0 mi East 8.1 mph - N/A   Overcast
10:56 PM 39.2 °F 33.0 °F 33.8 °F 81% 29.50 in 10.0 mi East 9.2 mph - N/A   Overcast
11:16 PM 37.4 °F 31.4 °F 32.0 °F 81% 29.50 in 10.0 mi East 8.1 mph - N/A   Overcast
11:36 PM 37.4 °F 32.1 °F 33.8 °F 87% 29.50 in 10.0 mi ENE 6.9 mph - N/A   Overcast
11:56 PM 37.4 °F 34.9 °F 33.8 °F 87% 29.49 in 10.0 mi NE 3.5 mph - N/A   Overcast